Location: Boiro
(42.6475°N, 8.8834°W)
Time: 14:44:05
(UTC+02:00)

X-37B - Visible Passes

Search period start: 23 October 2021 00:00
Search period end: 01 November 2021 23:00
Orbit: 342 x 346 km, 45.0° (Epoch: 22 October)

Date Brightness Start Highest point End Pass type
(mag) Time Alt. Az. Time Alt. Az. Time Alt. Az.
23 Oct 0.3 20:55:52 10° WNW 20:58:46 77° NNE 20:59:34 43° E visible
24 Oct 0.9 21:19:13 10° WNW 21:21:56 51° SW 21:21:56 51° SW visible
25 Oct 0.3 20:06:50 10° WNW 20:09:45 81° NNE 20:12:38 10° ESE visible
25 Oct 2.9 21:42:52 10° W 21:44:24 19° WSW 21:44:24 19° WSW visible
26 Oct 1.2 20:30:12 10° W 20:33:01 48° SSW 20:35:35 12° SE visible
27 Oct 2.8 20:53:55 10° W 20:56:08 20° SSW 20:58:20 10° SSE visible
29 Oct 3.1 20:04:58 10° W 20:07:05 18° SW 20:09:11 10° SSE visible
